Location: Ashtead
(51.3000°N, 0.3000°W)
Time: 16:05:13
(UTC+00:00)

Cosmos 494 Rocket - Pass Details

Date: 26 September 2023
Orbit: 741 x 768 km, 74.1° (Epoch: 07 December)

Event Time Altitude Azimuth Distance (km) Brightness Sun altitude
Rises 03:38:13 0° 336° (NNW) 3,218 7.3 -21.2°
Reaches altitude 10° 03:40:37 10° 339° (NNW) 2,284 6.5 -20.9°
Maximum altitude 03:45:47 67° 63° (ENE) 810 4.3 -20.1°
Drops below altitude 10° 03:50:52 10° 146° (SE) 2,254 6.5 -19.4°
Sets 03:53:13 0° 149° (SSE) 3,171 7.3 -19.1°
